Radiation Dose measured at exhaust stack monitor of Miscellaneous Solid Waste Incinerator Building/Incinerator raregas monitor
Date,Time,Incinerator Gas Monitor(cps),Wind Direction,Wind Velocity(m/s)
2022/03/30,00:00,1.4,south-southwest,2.6
2022/03/30,00:10,1.4,southwest,3.2
2022/03/30,00:20,1.3,southwest,3.2
2022/03/30,00:30,1.4,southwest,2.0
2022/03/30,00:40,1.5,south,0.8
2022/03/30,00:50,1.4,-,CALM
2022/03/30,01:00,1.4,south,0.9
2022/03/30,01:10,1.5,south-southeast,1.2
2022/03/30,01:20,1.5,south-southeast,2.6
2022/03/30,01:30,1.5,south,5.3
2022/03/30,01:40,1.6,south-southeast,5.1
2022/03/30,01:50,1.5,south,4.0
2022/03/30,02:00,1.4,south-southwest,3.2
2022/03/30,02:10,1.5,south,3.3
2022/03/30,02:20,1.4,south,4.3
2022/03/30,02:30,1.4,south-southeast,4.2
2022/03/30,02:40,1.4,south,4.7
2022/03/30,02:50,1.5,south,4.5
2022/03/30,03:00,1.5,south,3.7
2022/03/30,03:10,1.5,south,4.1
2022/03/30,03:20,1.5,south-southwest,4.2
2022/03/30,03:30,1.5,south-southwest,4.3
2022/03/30,03:40,1.5,south-southwest,4.4
2022/03/30,03:50,1.4,south-southwest,4.5
2022/03/30,04:00,1.4,south-southwest,3.9
2022/03/30,04:10,1.5,south-southwest,3.7
2022/03/30,04:20,1.4,south-southwest,4.0
2022/03/30,04:30,1.4,south-southwest,3.4
2022/03/30,04:40,1.5,south-southwest,3.7
2022/03/30,04:50,1.5,south-southwest,5.1
2022/03/30,05:00,1.5,south-southwest,7.2
2022/03/30,05:10,1.5,south-southwest,8.8
2022/03/30,05:20,1.5,south-southwest,9.1
2022/03/30,05:30,1.5,south-southwest,7.0
2022/03/30,05:40,1.5,south-southwest,7.0
2022/03/30,05:50,1.5,south-southwest,6.7
2022/03/30,06:00,1.5,south-southwest,6.8
2022/03/30,06:10,1.4,south-southwest,7.2
2022/03/30,06:20,1.5,south-southwest,7.4
2022/03/30,06:30,1.5,south-southwest,6.5
2022/03/30,06:40,1.5,south-southwest,7.0
2022/03/30,06:50,1.4,south-southwest,7.1
2022/03/30,07:00,1.5,south-southwest,7.5
2022/03/30,07:10,1.4,south-southwest,7.9
2022/03/30,07:20,1.5,south-southwest,7.2
2022/03/30,07:30,1.5,southwest,6.8
2022/03/30,07:40,1.5,southwest,5.6
2022/03/30,07:50,1.5,southwest,5.4
2022/03/30,08:00,1.6,south-southwest,7.0
2022/03/30,08:10,1.5,south-southwest,7.1
2022/03/30,08:20,1.5,south-southwest,6.9
2022/03/30,08:30,1.4,south-southwest,5.5
2022/03/30,08:40,1.4,south-southwest,6.2
2022/03/30,08:50,1.5,southwest,4.9
2022/03/30,09:00,1.4,south-southwest,5.9
2022/03/30,09:10,1.5,south-southwest,7.2
2022/03/30,09:20,1.5,southwest,6.2
2022/03/30,09:30,1.5,southwest,5.5
2022/03/30,09:40,1.5,south-southwest,6.6
2022/03/30,09:50,1.4,southwest,6.9
2022/03/30,10:00,1.5,south-southwest,7.8
2022/03/30,10:10,1.5,southwest,7.3
2022/03/30,10:20,1.5,south-southwest,7.3
2022/03/30,10:30,1.5,south-southwest,5.9
2022/03/30,10:40,1.5,south,7.4
2022/03/30,10:50,1.5,south,8.1
2022/03/30,11:00,1.5,south,9.9
2022/03/30,11:10,1.5,south,10.5
2022/03/30,11:20,1.5,south,9.2
2022/03/30,11:30,1.5,south,9.5
2022/03/30,11:40,1.5,south,8.3
2022/03/30,11:50,1.5,south,9.8
2022/03/30,12:00,1.5,south,11.3
2022/03/30,12:10,1.4,south-southeast,11.3
2022/03/30,12:20,1.5,south,11.8
2022/03/30,12:30,1.4,south,12.7
2022/03/30,12:40,1.5,south,13.9
2022/03/30,12:50,1.5,south,11.3
2022/03/30,13:00,1.5,south,11.3
2022/03/30,13:10,1.5,south,9.3
2022/03/30,13:20,1.5,south,9.7
2022/03/30,13:30,1.5,south,9.3
2022/03/30,13:40,1.4,south,8.9
2022/03/30,13:50,1.5,south,9.3
2022/03/30,14:00,1.5,south,10.7
2022/03/30,14:10,1.5,south,10.0
2022/03/30,14:20,1.5,south,8.4
2022/03/30,14:30,1.5,south,9.4
2022/03/30,14:40,1.6,south,8.6
2022/03/30,14:50,1.5,south-southeast,8.9
2022/03/30,15:00,1.5,south,8.9
2022/03/30,15:10,1.4,south,9.3
2022/03/30,15:20,1.5,south,9.2
2022/03/30,15:30,1.5,south,8.8
2022/03/30,15:40,1.5,south,9.1
2022/03/30,15:50,1.5,south,9.2
2022/03/30,16:00,1.5,south,9.7
2022/03/30,16:10,1.5,south,9.5
2022/03/30,16:20,1.4,south,8.6
2022/03/30,16:30,1.4,south,8.0
2022/03/30,16:40,1.4,south,8.8
2022/03/30,16:50,1.4,south,10.9
2022/03/30,17:00,1.5,south,11.3
2022/03/30,17:10,1.4,south-southwest,8.3
2022/03/30,17:20,1.5,south,11.1
2022/03/30,17:30,1.4,south,9.6
2022/03/30,17:40,1.6,south,10.0
2022/03/30,17:50,1.5,south,9.6
2022/03/30,18:00,1.4,south,9.7
2022/03/30,18:10,1.5,south,9.4
2022/03/30,18:20,1.5,south,9.2
2022/03/30,18:30,1.5,south-southwest,8.5
2022/03/30,18:40,1.4,south-southwest,9.9
2022/03/30,18:50,1.5,south-southwest,10.2
2022/03/30,19:00,1.5,south-southwest,9.7
2022/03/30,19:10,1.5,south-southwest,9.7
2022/03/30,19:20,1.5,south-southwest,9.3
2022/03/30,19:30,1.4,south-southwest,9.2
2022/03/30,19:40,1.6,south-southwest,9.7
2022/03/30,19:50,1.4,south-southwest,8.4
2022/03/30,20:00,1.5,south-southwest,8.0
2022/03/30,20:10,1.4,south,5.6
2022/03/30,20:20,1.5,south-southwest,6.5
2022/03/30,20:30,1.5,south,6.8
2022/03/30,20:40,1.5,south,7.5
2022/03/30,20:50,1.5,south,7.2
2022/03/30,21:00,1.4,south,5.9
2022/03/30,21:10,1.4,south-southwest,5.6
2022/03/30,21:20,1.4,south,5.6
2022/03/30,21:30,1.5,south-southwest,5.2
2022/03/30,21:40,1.5,southwest,4.3
2022/03/30,21:50,1.5,south-southwest,5.4
2022/03/30,22:00,1.5,south-southwest,4.5
2022/03/30,22:10,1.4,south-southwest,3.9
2022/03/30,22:20,1.4,southwest,4.7
2022/03/30,22:30,1.5,southwest,4.5
2022/03/30,22:40,1.5,southwest,4.2
2022/03/30,22:50,1.5,south-southwest,4.7
2022/03/30,23:00,1.4,south-southwest,5.8
2022/03/30,23:10,1.5,south-southwest,5.7
2022/03/30,23:20,1.5,south-southwest,5.4
2022/03/30,23:30,1.5,west-northwest,2.2
2022/03/30,23:40,1.5,north-northwest,3.6
2022/03/30,23:50,1.5,northwest,3.8
